Time,TemperatureF,DewpointF,PressureIn,WindDirection,WindDirectionDegrees,WindSpeedMPH,WindSpeedGustMPH,Humidity,HourlyPrecipIn,Conditions,Clouds,dailyrainin,SolarRadiationWatts/m^2,SoftwareType,DateUTC
2013-08-07 00:06:00,57.2,52.1,29.78,WSW,241,6.0,9.0,83,0.00,,,0.00,0,Wunderground v.1.15,2013-08-07 06:06:00,
2013-08-07 00:13:00,57.0,52.2,29.78,WSW,242,6.0,7.0,84,0.00,,,0.00,0,Wunderground v.1.15,2013-08-07 06:13:00,
2013-08-07 00:19:00,56.9,52.4,29.78,WSW,242,7.0,7.0,85,0.00,,,0.00,0,Wunderground v.1.15,2013-08-07 06:19:00,
2013-08-07 00:24:00,56.7,52.2,29.78,WSW,242,5.0,6.0,85,0.00,,,0.00,0,Wunderground v.1.15,2013-08-07 06:24:00,
2013-08-07 00:30:00,56.6,52.5,29.77,WSW,242,6.0,6.0,86,0.00,,,0.00,0,Wunderground v.1.15,2013-08-07 06:30:00,
2013-08-07 00:36:00,56.6,52.5,29.77,WSW,242,4.0,7.0,86,0.00,,,0.01,0,Wunderground v.1.15,2013-08-07 06:36:00,
2013-08-07 00:43:00,56.5,52.4,29.77,WSW,242,8.0,8.0,86,0.00,,,0.01,0,Wunderground v.1.15,2013-08-07 06:43:00,
2013-08-07 00:48:00,56.3,52.5,29.77,WSW,242,5.0,8.0,87,0.00,,,0.01,0,Wunderground v.1.15,2013-08-07 06:48:00,
2013-08-07 00:54:00,56.3,52.5,29.77,WSW,242,5.0,8.0,87,0.00,,,0.01,0,Wunderground v.1.15,2013-08-07 06:54:00,
2013-08-07 01:00:00,56.2,52.4,29.76,WSW,242,6.0,6.0,87,0.00,,,0.01,0,Wunderground v.1.15,2013-08-07 07:00:00,
2013-08-07 01:06:00,56.2,52.7,29.76,WSW,242,5.0,7.0,88,0.00,,,0.01,0,Wunderground v.1.15,2013-08-07 07:06:00,
2013-08-07 01:13:00,56.0,52.5,29.76,WSW,242,5.0,6.0,88,0.00,,,0.01,0,Wunderground v.1.15,2013-08-07 07:13:00,
2013-08-07 01:18:00,56.0,52.5,29.76,WSW,242,5.0,7.0,88,0.00,,,0.01,0,Wunderground v.1.15,2013-08-07 07:18:00,
2013-08-07 01:23:00,55.9,52.4,29.76,WSW,246,6.0,9.0,88,0.00,,,0.01,0,Wunderground v.1.15,2013-08-07 07:23:00,
2013-08-07 01:29:00,55.9,52.4,29.74,WSW,249,7.0,9.0,88,0.00,,,0.02,0,Wunderground v.1.15,2013-08-07 07:29:00,
2013-08-07 01:35:00,55.7,52.2,29.74,WSW,250,5.0,6.0,88,0.00,,,0.02,0,Wunderground v.1.15,2013-08-07 07:35:00,
2013-08-07 01:41:00,55.6,52.1,29.74,WSW,250,6.0,7.0,88,0.00,,,0.02,0,Wunderground v.1.15,2013-08-07 07:41:00,
2013-08-07 01:47:00,55.6,52.1,29.74,WSW,250,8.0,9.0,88,0.00,,,0.02,0,Wunderground v.1.15,2013-08-07 07:47:00,
2013-08-07 01:53:00,55.3,51.8,29.74,WSW,251,4.0,6.0,88,0.00,,,0.02,0,Wunderground v.1.15,2013-08-07 07:53:00,
2013-08-07 01:58:00,55.3,51.8,29.74,WSW,251,4.0,6.0,88,0.00,,,0.02,0,Wunderground v.1.15,2013-08-07 07:58:00,
2013-08-07 02:03:00,55.1,51.6,29.73,WSW,251,2.0,5.0,88,0.00,,,0.02,0,Wunderground v.1.15,2013-08-07 08:03:00,
2013-08-07 02:08:00,55.1,51.6,29.73,WSW,251,2.0,5.0,88,0.00,,,0.02,0,Wunderground v.1.15,2013-08-07 08:08:00,
2013-08-07 02:13:00,55.0,51.5,29.73,WSW,251,3.0,4.0,88,0.00,,,0.02,0,Wunderground v.1.15,2013-08-07 08:13:00,
2013-08-07 02:18:00,55.0,51.8,29.72,WSW,251,3.0,5.0,89,0.00,,,0.02,0,Wunderground v.1.15,2013-08-07 08:18:00,
2013-08-07 02:23:00,54.8,51.6,29.72,WSW,251,3.0,4.0,89,0.00,,,0.02,0,Wunderground v.1.15,2013-08-07 08:23:00,
2013-08-07 02:28:00,54.7,51.5,29.72,WSW,251,2.0,4.0,89,0.00,,,0.02,0,Wunderground v.1.15,2013-08-07 08:28:00,
2013-08-07 02:33:00,54.7,51.2,29.72,WSW,251,1.0,3.0,88,0.00,,,0.02,0,Wunderground v.1.15,2013-08-07 08:33:00,
2013-08-07 02:38:00,54.5,51.0,29.72,WSW,251,0.0,3.0,88,0.00,,,0.02,0,Wunderground v.1.15,2013-08-07 08:38:00,
2013-08-07 02:43:00,54.4,50.9,29.72,WSW,251,0.0,1.0,88,0.00,,,0.02,0,Wunderground v.1.15,2013-08-07 08:43:00,
2013-08-07 02:48:00,54.4,50.9,29.72,WSW,251,0.0,1.0,88,0.00,,,0.02,0,Wunderground v.1.15,2013-08-07 08:48:00,
2013-08-07 02:53:00,54.1,50.6,29.72,WSW,251,0.0,0.0,88,0.00,,,0.02,0,Wunderground v.1.15,2013-08-07 08:53:00,
2013-08-07 02:58:00,53.9,50.4,29.72,WSW,251,4.0,6.0,88,0.00,,,0.02,0,Wunderground v.1.15,2013-08-07 08:58:00,
2013-08-07 03:03:00,53.8,50.3,29.73,WSW,250,6.0,7.0,88,0.00,,,0.02,0,Wunderground v.1.15,2013-08-07 09:03:00,
2013-08-07 03:08:00,53.6,50.1,29.73,WSW,250,6.0,9.0,88,0.00,,,0.02,0,Wunderground v.1.15,2013-08-07 09:08:00,
2013-08-07 03:13:00,53.5,50.3,29.73,WSW,250,6.0,7.0,89,0.00,,,0.02,0,Wunderground v.1.15,2013-08-07 09:13:00,
2013-08-07 03:18:00,53.3,50.1,29.72,WSW,250,6.0,7.0,89,0.00,,,0.02,0,Wunderground v.1.15,2013-08-07 09:18:00,
2013-08-07 03:23:00,53.2,50.0,29.72,WSW,250,7.0,8.0,89,0.00,,,0.02,0,Wunderground v.1.15,2013-08-07 09:23:00,
2013-08-07 03:28:00,53.1,49.9,29.72,WSW,250,6.0,9.0,89,0.00,,,0.02,0,Wunderground v.1.15,2013-08-07 09:28:00,
2013-08-07 03:33:00,52.9,49.7,29.72,WSW,250,5.0,8.0,89,0.00,,,0.02,0,Wunderground v.1.15,2013-08-07 09:33:00,
2013-08-07 03:38:00,52.8,49.6,29.72,WSW,250,5.0,8.0,89,0.00,,,0.02,0,Wunderground v.1.15,2013-08-07 09:38:00,
2013-08-07 03:43:00,52.6,49.4,29.72,WSW,250,7.0,7.0,89,0.00,,,0.02,0,Wunderground v.1.15,2013-08-07 09:43:00,
2013-08-07 03:48:00,52.5,49.4,29.72,WSW,250,6.0,8.0,89,0.00,,,0.02,0,Wunderground v.1.15,2013-08-07 09:48:00,
2013-08-07 03:53:00,52.3,49.2,29.72,WSW,250,6.0,8.0,89,0.00,,,0.02,0,Wunderground v.1.15,2013-08-07 09:53:00,
2013-08-07 03:58:00,52.2,49.1,29.73,WSW,250,4.0,8.0,89,0.00,,,0.02,0,Wunderground v.1.15,2013-08-07 09:58:00,
2013-08-07 04:03:00,52.0,48.9,29.73,WSW,250,5.0,8.0,89,0.00,,,0.02,0,Wunderground v.1.15,2013-08-07 10:03:00,
2013-08-07 04:08:00,51.9,48.8,29.73,WSW,250,8.0,8.0,89,0.00,,,0.02,0,Wunderground v.1.15,2013-08-07 10:08:00,
2013-08-07 04:13:00,51.9,49.1,29.73,WSW,250,4.0,8.0,90,0.00,,,0.02,0,Wunderground v.1.15,2013-08-07 10:13:00,
2013-08-07 04:19:00,51.7,48.9,29.73,WSW,250,6.0,8.0,90,0.00,,,0.02,0,Wunderground v.1.15,2013-08-07 10:19:00,
2013-08-07 04:23:00,51.7,48.9,29.73,WSW,250,6.0,8.0,90,0.00,,,0.02,0,Wunderground v.1.15,2013-08-07 10:23:00,
2013-08-07 04:28:00,51.6,48.8,29.73,WSW,250,4.0,8.0,90,0.00,,,0.02,0,Wunderground v.1.15,2013-08-07 10:28:00,
2013-08-07 04:33:00,51.6,48.8,29.74,WSW,250,4.0,5.0,90,0.00,,,0.02,0,Wunderground v.1.15,2013-08-07 10:33:00,
2013-08-07 04:38:00,51.4,48.6,29.74,WSW,250,4.0,5.0,90,0.00,,,0.02,0,Wunderground v.1.15,2013-08-07 10:38:00,
2013-08-07 04:43:00,51.3,48.5,29.74,WSW,250,5.0,6.0,90,0.00,,,0.02,0,Wunderground v.1.15,2013-08-07 10:43:00,
2013-08-07 04:49:00,51.1,48.3,29.74,WSW,250,6.0,7.0,90,0.00,,,0.02,0,Wunderground v.1.15,2013-08-07 10:49:00,
2013-08-07 04:54:00,51.0,48.2,29.74,WSW,250,8.0,9.0,90,0.00,,,0.02,0,Wunderground v.1.15,2013-08-07 10:54:00,
2013-08-07 04:59:00,50.8,48.0,29.74,WSW,250,6.0,9.0,90,0.00,,,0.02,0,Wunderground v.1.15,2013-08-07 10:59:00,
2013-08-07 05:04:00,50.7,47.9,29.74,WSW,250,4.0,8.0,90,0.00,,,0.02,0,Wunderground v.1.15,2013-08-07 11:04:00,
2013-08-07 05:09:00,50.5,47.7,29.74,WSW,252,3.0,8.0,90,0.00,,,0.02,0,Wunderground v.1.15,2013-08-07 11:09:00,
2013-08-07 05:14:00,50.5,47.7,29.74,WSW,252,3.0,6.0,90,0.00,,,0.02,0,Wunderground v.1.15,2013-08-07 11:14:00,
2013-08-07 05:19:00,50.4,47.6,29.74,WSW,253,3.0,7.0,90,0.00,,,0.02,0,Wunderground v.1.15,2013-08-07 11:19:00,
2013-08-07 05:24:00,50.2,47.4,29.74,WSW,253,5.0,6.0,90,0.00,,,0.02,0,Wunderground v.1.15,2013-08-07 11:24:00,
2013-08-07 05:29:00,50.2,47.4,29.74,WSW,253,7.0,7.0,90,0.00,,,0.02,0,Wunderground v.1.15,2013-08-07 11:29:00,
2013-08-07 05:34:00,50.1,47.3,29.74,WSW,252,5.0,6.0,90,0.00,,,0.02,0,Wunderground v.1.15,2013-08-07 11:34:00,
2013-08-07 05:39:00,50.1,47.6,29.74,WSW,248,8.0,9.0,91,0.00,,,0.02,0,Wunderground v.1.15,2013-08-07 11:39:00,
2013-08-07 05:44:00,50.1,47.6,29.75,WSW,245,7.0,10.0,91,0.00,,,0.02,0,Wunderground v.1.15,2013-08-07 11:44:00,
2013-08-07 05:49:00,50.2,47.7,29.75,WSW,242,8.0,10.0,91,0.00,,,0.02,0,Wunderground v.1.15,2013-08-07 11:49:00,
2013-08-07 05:54:00,50.2,47.7,29.75,WSW,240,6.0,9.0,91,0.00,,,0.02,0,Wunderground v.1.15,2013-08-07 11:54:00,
2013-08-07 05:59:00,50.2,47.7,29.75,WSW,240,5.0,9.0,91,0.00,,,0.02,0,Wunderground v.1.15,2013-08-07 11:59:00,
2013-08-07 06:04:00,50.2,47.7,29.75,WSW,240,6.0,8.0,91,0.00,,,0.02,0,Wunderground v.1.15,2013-08-07 12:04:00,
2013-08-07 06:09:00,50.4,48.2,29.75,WSW,240,5.0,8.0,92,0.00,,,0.02,0,Wunderground v.1.15,2013-08-07 12:09:00,
2013-08-07 06:14:00,50.5,48.3,29.76,WSW,240,5.0,8.0,92,0.00,,,0.02,0,Wunderground v.1.15,2013-08-07 12:14:00,
2013-08-07 06:19:00,50.7,48.5,29.76,WSW,240,6.0,8.0,92,0.00,,,0.02,0,Wunderground v.1.15,2013-08-07 12:19:00,
2013-08-07 06:24:00,50.8,48.6,29.76,WSW,240,3.0,7.0,92,0.00,,,0.02,0,Wunderground v.1.15,2013-08-07 12:24:00,
2013-08-07 06:29:00,51.0,48.8,29.76,WSW,240,3.0,7.0,92,0.00,,,0.02,5,Wunderground v.1.15,2013-08-07 12:29:00,
2013-08-07 06:34:00,51.1,48.9,29.76,WSW,240,4.0,5.0,92,0.00,,,0.02,9,Wunderground v.1.15,2013-08-07 12:34:00,
2013-08-07 06:39:00,51.1,48.9,29.76,WSW,240,3.0,6.0,92,0.00,,,0.02,14,Wunderground v.1.15,2013-08-07 12:39:00,
2013-08-07 06:44:00,51.3,49.1,29.75,WSW,240,4.0,5.0,92,0.00,,,0.02,19,Wunderground v.1.15,2013-08-07 12:44:00,
2013-08-07 06:50:00,51.3,49.1,29.75,WSW,240,4.0,5.0,92,0.00,,,0.02,32,Wunderground v.1.15,2013-08-07 12:50:00,
2013-08-07 06:56:00,51.4,49.2,29.75,WSW,240,3.0,5.0,92,0.00,,,0.02,37,Wunderground v.1.15,2013-08-07 12:56:00,
2013-08-07 07:01:00,51.4,49.2,29.76,WSW,240,3.0,5.0,92,0.00,,,0.02,32,Wunderground v.1.15,2013-08-07 13:01:00,
2013-08-07 07:06:00,51.6,49.4,29.76,WSW,240,6.0,6.0,92,0.00,,,0.02,21,Wunderground v.1.15,2013-08-07 13:06:00,
2013-08-07 07:11:00,51.6,49.4,29.76,WSW,240,3.0,6.0,92,0.00,,,0.02,14,Wunderground v.1.15,2013-08-07 13:11:00,
2013-08-07 07:17:00,51.6,49.4,29.76,WSW,240,2.0,6.0,92,0.00,,,0.02,11,Wunderground v.1.15,2013-08-07 13:17:00,
2013-08-07 07:22:00,51.7,49.5,29.76,WSW,240,4.0,5.0,92,0.00,,,0.02,14,Wunderground v.1.15,2013-08-07 13:22:00,
2013-08-07 07:27:00,51.7,49.5,29.76,WSW,240,4.0,5.0,92,0.00,,,0.02,30,Wunderground v.1.15,2013-08-07 13:27:00,
2013-08-07 07:32:00,51.7,49.5,29.76,WSW,240,3.0,5.0,92,0.00,,,0.02,32,Wunderground v.1.15,2013-08-07 13:32:00,
2013-08-07 07:37:00,51.7,49.5,29.76,WSW,240,2.0,5.0,92,0.00,,,0.02,28,Wunderground v.1.15,2013-08-07 13:37:00,
2013-08-07 07:43:00,51.7,49.5,29.76,WSW,240,3.0,4.0,92,0.00,,,0.02,32,Wunderground v.1.15,2013-08-07 13:43:00,
2013-08-07 07:48:00,51.9,49.6,29.76,WSW,240,2.0,4.0,92,0.00,,,0.02,39,Wunderground v.1.15,2013-08-07 13:48:00,
2013-08-07 07:53:00,52.0,49.7,29.76,WSW,240,0.0,4.0,92,0.00,,,0.02,47,Wunderground v.1.15,2013-08-07 13:53:00,
2013-08-07 07:59:00,52.0,49.7,29.76,WSW,240,0.0,4.0,92,0.00,,,0.02,51,Wunderground v.1.15,2013-08-07 13:59:00,
2013-08-07 08:04:00,52.2,49.9,29.76,WSW,240,0.0,1.0,92,0.00,,,0.02,51,Wunderground v.1.15,2013-08-07 14:04:00,
2013-08-07 08:09:00,52.3,50.0,29.76,WSW,240,0.0,1.0,92,0.00,,,0.02,47,Wunderground v.1.15,2013-08-07 14:09:00,
2013-08-07 08:14:00,52.3,50.0,29.76,WSW,240,0.0,0.0,92,0.00,,,0.02,46,Wunderground v.1.15,2013-08-07 14:14:00,
2013-08-07 08:19:00,52.5,50.5,29.76,WSW,240,0.0,0.0,93,0.00,,,0.02,58,Wunderground v.1.15,2013-08-07 14:19:00,
2013-08-07 08:24:00,52.6,50.6,29.76,WSW,240,0.0,0.0,93,0.00,,,0.02,81,Wunderground v.1.15,2013-08-07 14:24:00,
2013-08-07 08:29:00,52.8,50.8,29.76,WSW,240,0.0,0.0,93,0.00,,,0.02,104,Wunderground v.1.15,2013-08-07 14:29:00,
2013-08-07 08:34:00,53.1,51.1,29.76,WSW,240,2.0,5.0,93,0.00,,,0.02,107,Wunderground v.1.15,2013-08-07 14:34:00,
2013-08-07 08:39:00,53.2,51.2,29.76,WSW,240,2.0,5.0,93,0.00,,,0.02,135,Wunderground v.1.15,2013-08-07 14:39:00,
2013-08-07 08:44:00,53.3,51.3,29.77,WSW,240,3.0,5.0,93,0.00,,,0.02,179,Wunderground v.1.15,2013-08-07 14:44:00,
2013-08-07 08:49:00,53.6,51.6,29.77,WSW,240,3.0,5.0,93,0.00,,,0.02,181,Wunderground v.1.15,2013-08-07 14:49:00,
2013-08-07 08:56:00,53.9,51.9,29.77,WSW,240,0.0,4.0,93,0.00,,,0.02,190,Wunderground v.1.15,2013-08-07 14:56:00,
2013-08-07 09:01:00,54.4,52.4,29.78,WSW,240,0.0,1.0,93,0.00,,,0.02,206,Wunderground v.1.15,2013-08-07 15:01:00,
2013-08-07 09:06:00,54.8,52.8,29.78,WSW,240,0.0,1.0,93,0.00,,,0.02,218,Wunderground v.1.15,2013-08-07 15:06:00,
2013-08-07 09:11:00,55.1,53.1,29.78,WSW,240,0.0,0.0,93,0.00,,,0.02,216,Wunderground v.1.15,2013-08-07 15:11:00,
2013-08-07 09:16:00,55.6,53.6,29.77,WSW,240,0.0,0.0,93,0.00,,,0.02,244,Wunderground v.1.15,2013-08-07 15:16:00,
2013-08-07 09:21:00,56.0,54.0,29.77,WSW,240,0.0,0.0,93,0.00,,,0.02,246,Wunderground v.1.15,2013-08-07 15:21:00,
2013-08-07 09:26:00,56.3,54.3,29.77,WSW,240,0.0,0.0,93,0.00,,,0.02,283,Wunderground v.1.15,2013-08-07 15:26:00,
2013-08-07 09:31:00,56.5,54.5,29.76,WSW,240,0.0,0.0,93,0.00,,,0.02,327,Wunderground v.1.15,2013-08-07 15:31:00,
2013-08-07 09:36:00,56.9,54.9,29.76,WSW,240,0.0,0.0,93,0.00,,,0.02,288,Wunderground v.1.15,2013-08-07 15:36:00,
2013-08-07 09:41:00,57.2,55.2,29.76,WSW,240,0.0,0.0,93,0.00,,,0.02,272,Wunderground v.1.15,2013-08-07 15:41:00,
2013-08-07 09:47:00,57.5,55.2,29.76,WSW,242,0.0,0.0,92,0.00,,,0.02,359,Wunderground v.1.15,2013-08-07 15:47:00,
2013-08-07 09:52:00,57.8,55.5,29.76,WSW,242,0.0,0.0,92,0.00,,,0.02,396,Wunderground v.1.15,2013-08-07 15:52:00,
2013-08-07 09:57:00,58.0,55.7,29.76,WSW,242,0.0,0.0,92,0.00,,,0.02,432,Wunderground v.1.15,2013-08-07 15:57:00,
2013-08-07 10:02:00,58.7,56.4,29.77,WSW,242,0.0,0.0,92,0.00,,,0.02,916,Wunderground v.1.15,2013-08-07 16:02:00,
2013-08-07 10:07:00,59.2,56.6,29.77,WSW,242,0.0,0.0,91,0.00,,,0.02,306,Wunderground v.1.15,2013-08-07 16:07:00,
2013-08-07 10:13:00,59.5,56.3,29.77,WSW,242,0.0,0.0,89,0.00,,,0.02,225,Wunderground v.1.15,2013-08-07 16:13:00,
2013-08-07 10:18:00,59.6,55.7,29.78,WSW,242,0.0,0.0,87,0.00,,,0.02,165,Wunderground v.1.15,2013-08-07 16:18:00,
2013-08-07 10:23:00,59.6,55.1,29.78,WSW,242,7.0,8.0,85,0.00,,,0.02,105,Wunderground v.1.15,2013-08-07 16:23:00,
2013-08-07 10:28:00,59.6,54.4,29.78,WSW,242,3.0,8.0,83,0.00,,,0.02,79,Wunderground v.1.15,2013-08-07 16:28:00,
2013-08-07 10:33:00,59.8,54.6,29.78,WSW,242,1.0,6.0,83,0.00,,,0.03,83,Wunderground v.1.15,2013-08-07 16:33:00,
2013-08-07 10:38:00,59.8,54.6,29.78,WSW,242,0.0,6.0,83,0.00,,,0.03,102,Wunderground v.1.15,2013-08-07 16:38:00,
2013-08-07 10:44:00,59.6,54.4,29.78,WSW,242,0.0,2.0,83,0.00,,,0.03,114,Wunderground v.1.15,2013-08-07 16:44:00,
2013-08-07 10:49:00,59.6,54.4,29.78,WSW,242,0.0,2.0,83,0.04,,,0.04,114,Wunderground v.1.15,2013-08-07 16:49:00,
2013-08-07 10:54:00,59.3,54.1,29.78,WSW,242,0.0,0.0,83,0.04,,,0.04,135,Wunderground v.1.15,2013-08-07 16:54:00,
2013-08-07 10:59:00,59.3,54.8,29.76,WSW,242,0.0,0.0,85,0.04,,,0.04,192,Wunderground v.1.15,2013-08-07 16:59:00,
2013-08-07 11:04:00,59.2,54.7,29.76,WSW,242,0.0,0.0,85,0.00,,,0.04,313,Wunderground v.1.15,2013-08-07 17:04:00,
2013-08-07 11:09:00,59.2,55.0,29.76,WSW,242,0.0,0.0,86,0.00,,,0.04,415,Wunderground v.1.15,2013-08-07 17:09:00,
2013-08-07 11:14:00,59.5,55.6,29.77,WSW,242,0.0,0.0,87,0.00,,,0.04,462,Wunderground v.1.15,2013-08-07 17:14:00,
2013-08-07 11:19:00,59.6,55.7,29.77,WSW,242,0.0,0.0,87,0.00,,,0.04,439,Wunderground v.1.15,2013-08-07 17:19:00,
2013-08-07 11:24:00,59.9,56.0,29.77,WSW,242,0.0,0.0,87,0.00,,,0.04,478,Wunderground v.1.15,2013-08-07 17:24:00,
2013-08-07 11:29:00,60.5,56.6,29.76,WSW,242,0.0,7.0,87,0.00,,,0.04,1092,Wunderground v.1.15,2013-08-07 17:29:00,
2013-08-07 11:34:00,60.9,56.4,29.76,WSW,242,0.0,5.0,85,0.00,,,0.04,427,Wunderground v.1.15,2013-08-07 17:34:00,
2013-08-07 11:39:00,61.2,56.0,29.76,WSW,242,0.0,5.0,83,0.00,,,0.04,418,Wunderground v.1.15,2013-08-07 17:39:00,
2013-08-07 11:44:00,61.5,56.0,29.76,WSW,242,0.0,0.0,82,0.00,,,0.04,380,Wunderground v.1.15,2013-08-07 17:44:00,
2013-08-07 11:49:00,62.0,56.1,29.76,WSW,242,0.0,0.0,81,0.00,,,0.04,1007,Wunderground v.1.15,2013-08-07 17:49:00,
2013-08-07 11:54:00,62.6,56.3,29.76,WSW,242,0.0,0.0,80,0.00,,,0.04,951,Wunderground v.1.15,2013-08-07 17:54:00,
2013-08-07 11:59:00,63.1,56.1,29.75,WSW,242,0.0,0.0,78,0.00,,,0.04,925,Wunderground v.1.15,2013-08-07 17:59:00,
2013-08-07 12:04:00,63.7,56.0,29.75,WSW,242,0.0,0.0,76,0.00,,,0.04,919,Wunderground v.1.15,2013-08-07 18:04:00,
2013-08-07 12:09:00,64.2,55.7,29.75,WSW,242,0.0,0.0,74,0.00,,,0.04,914,Wunderground v.1.15,2013-08-07 18:09:00,
2013-08-07 12:16:00,65.0,55.4,29.74,WSW,242,0.0,4.0,71,0.00,,,0.04,923,Wunderground v.1.15,2013-08-07 18:16:00,
2013-08-07 12:22:00,65.6,55.5,29.74,WSW,242,0.0,0.0,70,0.00,,,0.04,923,Wunderground v.1.15,2013-08-07 18:22:00,
2013-08-07 12:27:00,66.1,54.0,29.74,WSW,242,0.0,0.0,65,0.00,,,0.04,939,Wunderground v.1.15,2013-08-07 18:27:00,
2013-08-07 12:33:00,66.6,54.9,29.74,WSW,242,0.0,0.0,66,0.00,,,0.04,962,Wunderground v.1.15,2013-08-07 18:33:00,
2013-08-07 12:38:00,67.1,53.6,29.74,WSW,242,0.0,0.0,62,0.00,,,0.04,951,Wunderground v.1.15,2013-08-07 18:38:00,
2013-08-07 12:44:00,67.6,52.8,29.73,WSW,242,0.0,0.0,59,0.00,,,0.04,979,Wunderground v.1.15,2013-08-07 18:44:00,
2013-08-07 12:49:00,67.8,52.9,29.73,WSW,242,0.0,0.0,59,0.00,,,0.04,308,Wunderground v.1.15,2013-08-07 18:49:00,
2013-08-07 12:54:00,67.9,53.0,29.73,WSW,242,0.0,0.0,59,0.00,,,0.04,357,Wunderground v.1.15,2013-08-07 18:54:00,
2013-08-07 12:59:00,67.8,52.9,29.74,WSW,242,0.0,0.0,59,0.00,,,0.04,392,Wunderground v.1.15,2013-08-07 18:59:00,
2013-08-07 13:04:00,67.8,52.5,29.74,WSW,242,0.0,0.0,58,0.00,,,0.04,288,Wunderground v.1.15,2013-08-07 19:04:00,
2013-08-07 13:09:00,67.4,51.6,29.74,WSW,242,0.0,0.0,57,0.00,,,0.04,279,Wunderground v.1.15,2013-08-07 19:09:00,
2013-08-07 13:14:00,67.3,52.5,29.73,WSW,242,0.0,0.0,59,0.00,,,0.04,329,Wunderground v.1.15,2013-08-07 19:14:00,
2013-08-07 13:19:00,67.3,52.5,29.73,WSW,242,0.0,0.0,59,0.00,,,0.04,313,Wunderground v.1.15,2013-08-07 19:19:00,
2013-08-07 13:24:00,67.1,52.7,29.73,WSW,242,0.0,0.0,60,0.00,,,0.04,318,Wunderground v.1.15,2013-08-07 19:24:00,
2013-08-07 13:29:00,67.1,52.7,29.72,WSW,242,0.0,0.0,60,0.00,,,0.04,209,Wunderground v.1.15,2013-08-07 19:29:00,
2013-08-07 13:34:00,66.9,52.1,29.72,WSW,242,0.0,0.0,59,0.00,,,0.04,227,Wunderground v.1.15,2013-08-07 19:34:00,
2013-08-07 13:39:00,66.8,52.0,29.72,WSW,242,0.0,0.0,59,0.00,,,0.04,332,Wunderground v.1.15,2013-08-07 19:39:00,
2013-08-07 13:44:00,66.8,52.5,29.71,WSW,242,0.0,0.0,60,0.00,,,0.04,292,Wunderground v.1.15,2013-08-07 19:44:00,
2013-08-07 13:49:00,66.6,52.7,29.71,WSW,242,0.0,0.0,61,0.00,,,0.04,278,Wunderground v.1.15,2013-08-07 19:49:00,
2013-08-07 13:54:00,66.6,52.7,29.71,WSW,242,0.0,0.0,61,0.00,,,0.04,260,Wunderground v.1.15,2013-08-07 19:54:00,
2013-08-07 13:59:00,66.4,50.7,29.73,WSW,242,0.0,0.0,57,0.00,,,0.04,278,Wunderground v.1.15,2013-08-07 19:59:00,
2013-08-07 14:04:00,66.4,50.7,29.73,WSW,242,0.0,0.0,57,0.00,,,0.04,264,Wunderground v.1.15,2013-08-07 20:04:00,
2013-08-07 14:09:00,66.3,50.1,29.73,WSW,242,0.0,0.0,56,0.00,,,0.04,301,Wunderground v.1.15,2013-08-07 20:09:00,
2013-08-07 14:14:00,66.4,52.1,29.73,WSW,242,0.0,0.0,60,0.00,,,0.04,279,Wunderground v.1.15,2013-08-07 20:14:00,
2013-08-07 14:19:00,66.4,51.6,29.73,WSW,242,0.0,0.0,59,0.00,,,0.04,253,Wunderground v.1.15,2013-08-07 20:19:00,
2013-08-07 14:24:00,66.4,50.7,29.73,WSW,242,0.0,0.0,57,0.00,,,0.04,244,Wunderground v.1.15,2013-08-07 20:24:00,
2013-08-07 14:29:00,66.4,51.2,29.74,WSW,242,0.0,0.0,58,0.00,,,0.04,237,Wunderground v.1.15,2013-08-07 20:29:00,
2013-08-07 14:35:00,66.4,52.1,29.74,WSW,242,0.0,0.0,60,0.00,,,0.04,214,Wunderground v.1.15,2013-08-07 20:35:00,
2013-08-07 14:40:00,66.3,51.5,29.74,WSW,242,0.0,0.0,59,0.00,,,0.04,171,Wunderground v.1.15,2013-08-07 20:40:00,
2013-08-07 14:45:00,66.3,52.4,29.72,WSW,242,4.0,5.0,61,0.00,,,0.04,132,Wunderground v.1.15,2013-08-07 20:45:00,
2013-08-07 14:50:00,66.0,53.0,29.72,WSW,251,7.0,9.0,63,0.00,,,0.04,105,Wunderground v.1.15,2013-08-07 20:50:00,
2013-08-07 14:56:00,65.8,53.3,29.72,West,259,6.0,11.0,64,0.00,,,0.04,90,Wunderground v.1.15,2013-08-07 20:56:00,
2013-08-07 15:01:00,65.5,53.8,29.74,West,265,4.0,7.0,66,0.00,,,0.04,77,Wunderground v.1.15,2013-08-07 21:01:00,
2013-08-07 15:06:00,65.2,54.8,29.74,WNW,296,11.0,11.0,69,0.00,,,0.04,104,Wunderground v.1.15,2013-08-07 21:06:00,
2013-08-07 15:11:00,63.9,52.3,29.74,NW,315,8.0,11.0,66,0.00,,,0.04,125,Wunderground v.1.15,2013-08-07 21:11:00,
2013-08-07 15:16:00,62.7,52.0,29.74,NW,316,9.0,11.0,68,0.00,,,0.04,125,Wunderground v.1.15,2013-08-07 21:16:00,
2013-08-07 15:21:00,61.6,52.1,29.74,NW,318,0.0,6.0,71,0.00,,,0.04,151,Wunderground v.1.15,2013-08-07 21:21:00,
2013-08-07 15:26:00,60.7,51.6,29.74,NW,324,4.0,14.0,72,0.00,,,0.04,171,Wunderground v.1.15,2013-08-07 21:26:00,
2013-08-07 15:31:00,60.4,52.1,29.77,WNW,289,7.0,7.0,74,0.00,,,0.04,142,Wunderground v.1.15,2013-08-07 21:31:00,
2013-08-07 15:36:00,60.1,52.1,29.77,West,265,6.0,11.0,75,0.00,,,0.04,134,Wunderground v.1.15,2013-08-07 21:36:00,
2013-08-07 15:41:00,59.6,51.3,29.77,West,265,4.0,7.0,74,0.00,,,0.04,132,Wunderground v.1.15,2013-08-07 21:41:00,
2013-08-07 15:46:00,59.5,51.6,29.77,West,265,0.0,7.0,75,0.00,,,0.04,132,Wunderground v.1.15,2013-08-07 21:46:00,
2013-08-07 15:51:00,59.3,51.7,29.77,West,265,0.0,1.0,76,0.00,,,0.04,134,Wunderground v.1.15,2013-08-07 21:51:00,
2013-08-07 15:56:00,59.2,52.3,29.77,West,265,0.0,1.0,78,0.00,,,0.04,130,Wunderground v.1.15,2013-08-07 21:56:00,
2013-08-07 16:01:00,59.0,52.1,29.76,West,265,0.0,0.0,78,0.00,,,0.04,160,Wunderground v.1.15,2013-08-07 22:01:00,
2013-08-07 16:06:00,59.0,52.5,29.76,West,265,0.0,0.0,79,0.00,,,0.05,183,Wunderground v.1.15,2013-08-07 22:06:00,
2013-08-07 16:11:00,59.2,53.0,29.76,West,265,0.0,0.0,80,0.00,,,0.05,188,Wunderground v.1.15,2013-08-07 22:11:00,
2013-08-07 16:16:00,59.2,53.4,29.77,West,265,0.0,0.0,81,0.00,,,0.05,186,Wunderground v.1.15,2013-08-07 22:16:00,
2013-08-07 16:22:00,59.2,53.4,29.77,West,265,0.0,0.0,81,0.00,,,0.05,229,Wunderground v.1.15,2013-08-07 22:22:00,
2013-08-07 16:27:00,59.3,53.8,29.77,West,265,7.0,7.0,82,0.00,,,0.06,230,Wunderground v.1.15,2013-08-07 22:27:00,
2013-08-07 16:33:00,59.2,54.0,29.76,WNW,296,9.0,12.0,83,0.00,,,0.06,211,Wunderground v.1.15,2013-08-07 22:33:00,
2013-08-07 16:38:00,59.2,54.0,29.76,NW,311,3.0,12.0,83,0.00,,,0.06,193,Wunderground v.1.15,2013-08-07 22:38:00,
2013-08-07 16:44:00,59.0,53.5,29.77,NW,312,4.0,7.0,82,0.00,,,0.06,137,Wunderground v.1.15,2013-08-07 22:44:00,
2013-08-07 16:49:00,58.9,53.1,29.77,NW,312,0.0,7.0,81,0.00,,,0.06,97,Wunderground v.1.15,2013-08-07 22:49:00,
2013-08-07 16:54:00,58.7,52.9,29.77,NW,312,0.0,6.0,81,0.00,,,0.06,90,Wunderground v.1.15,2013-08-07 22:54:00,
2013-08-07 16:59:00,58.7,53.2,29.77,NW,312,0.0,6.0,82,0.00,,,0.06,90,Wunderground v.1.15,2013-08-07 22:59:00,
2013-08-07 17:04:00,58.7,53.2,29.77,NW,312,0.0,1.0,82,0.00,,,0.06,102,Wunderground v.1.15,2013-08-07 23:04:00,
2013-08-07 17:09:00,58.7,52.9,29.77,NW,312,5.0,5.0,81,0.00,,,0.06,88,Wunderground v.1.15,2013-08-07 23:09:00,
2013-08-07 17:14:00,58.7,53.2,29.77,NW,312,4.0,7.0,82,0.00,,,0.06,69,Wunderground v.1.15,2013-08-07 23:14:00,
2013-08-07 17:19:00,58.7,53.2,29.77,NW,312,0.0,10.0,82,0.00,,,0.06,83,Wunderground v.1.15,2013-08-07 23:19:00,
2013-08-07 17:24:00,58.4,52.9,29.77,NW,313,5.0,8.0,82,0.00,,,0.06,95,Wunderground v.1.15,2013-08-07 23:24:00,
2013-08-07 17:29:00,58.3,52.8,29.76,NW,314,2.0,9.0,82,0.00,,,0.06,91,Wunderground v.1.15,2013-08-07 23:29:00,
2013-08-07 17:34:00,58.0,52.2,29.76,NW,313,2.0,9.0,81,0.00,,,0.06,91,Wunderground v.1.15,2013-08-07 23:34:00,
2013-08-07 17:39:00,57.6,52.1,29.76,NW,312,0.0,9.0,82,0.00,,,0.06,95,Wunderground v.1.15,2013-08-07 23:39:00,
2013-08-07 17:44:00,57.6,52.1,29.77,NW,312,2.0,5.0,82,0.00,,,0.06,93,Wunderground v.1.15,2013-08-07 23:44:00,
2013-08-07 17:49:00,57.5,52.4,29.77,NW,312,0.0,5.0,83,0.00,,,0.06,98,Wunderground v.1.15,2013-08-07 23:49:00,
2013-08-07 17:54:00,57.5,52.4,29.77,NW,312,0.0,2.0,83,0.00,,,0.06,109,Wunderground v.1.15,2013-08-07 23:54:00,
2013-08-07 17:59:00,57.3,52.2,29.78,NW,312,0.0,2.0,83,0.00,,,0.06,121,Wunderground v.1.15,2013-08-07 23:59:00,
2013-08-07 18:04:00,57.3,52.2,29.78,NW,312,0.0,0.0,83,0.00,,,0.06,146,Wunderground v.1.15,2013-08-08 00:04:00,
2013-08-07 18:09:00,57.5,52.7,29.78,NW,312,0.0,0.0,84,0.00,,,0.06,167,Wunderground v.1.15,2013-08-08 00:09:00,
2013-08-07 18:14:00,57.5,53.0,29.78,NW,312,0.0,0.0,85,0.00,,,0.06,141,Wunderground v.1.15,2013-08-08 00:14:00,
2013-08-07 18:19:00,57.6,53.1,29.78,NW,312,0.0,0.0,85,0.00,,,0.06,121,Wunderground v.1.15,2013-08-08 00:19:00,
2013-08-07 18:24:00,57.6,53.1,29.78,NW,312,0.0,0.0,85,0.00,,,0.06,125,Wunderground v.1.15,2013-08-08 00:24:00,
2013-08-07 18:29:00,57.6,53.1,29.76,NW,312,0.0,0.0,85,0.00,,,0.06,104,Wunderground v.1.15,2013-08-08 00:29:00,
2013-08-07 18:34:00,57.6,52.8,29.76,NW,312,0.0,0.0,84,0.00,,,0.06,105,Wunderground v.1.15,2013-08-08 00:34:00,
2013-08-07 18:39:00,57.5,52.7,29.76,NW,312,0.0,0.0,84,0.00,,,0.06,97,Wunderground v.1.15,2013-08-08 00:39:00,
2013-08-07 18:44:00,57.5,52.7,29.76,NW,312,0.0,0.0,84,0.00,,,0.06,81,Wunderground v.1.15,2013-08-08 00:44:00,
2013-08-07 18:49:00,57.5,52.4,29.76,NW,312,0.0,0.0,83,0.00,,,0.06,70,Wunderground v.1.15,2013-08-08 00:49:00,
2013-08-07 18:54:00,57.3,52.2,29.76,NW,312,0.0,0.0,83,0.00,,,0.06,63,Wunderground v.1.15,2013-08-08 00:54:00,
2013-08-07 18:59:00,57.3,52.2,29.76,NW,312,0.0,0.0,83,0.00,,,0.06,56,Wunderground v.1.15,2013-08-08 00:59:00,
2013-08-07 19:04:00,57.2,52.1,29.76,NW,312,0.0,0.0,83,0.00,,,0.06,56,Wunderground v.1.15,2013-08-08 01:04:00,
2013-08-07 19:09:00,57.0,51.6,29.76,NW,312,0.0,0.0,82,0.00,,,0.06,44,Wunderground v.1.15,2013-08-08 01:09:00,
2013-08-07 19:14:00,56.9,51.5,29.76,NW,312,0.0,0.0,82,0.00,,,0.06,30,Wunderground v.1.15,2013-08-08 01:14:00,
2013-08-07 19:19:00,56.9,51.5,29.76,NW,312,0.0,0.0,82,0.00,,,0.06,21,Wunderground v.1.15,2013-08-08 01:19:00,
2013-08-07 19:24:00,56.7,51.3,29.76,NW,312,0.0,0.0,82,0.00,,,0.06,19,Wunderground v.1.15,2013-08-08 01:24:00,
2013-08-07 19:29:00,56.6,51.2,29.76,NW,312,0.0,0.0,82,0.00,,,0.06,19,Wunderground v.1.15,2013-08-08 01:29:00,
2013-08-07 19:34:00,56.5,51.1,29.76,NW,312,0.0,0.0,82,0.00,,,0.06,19,Wunderground v.1.15,2013-08-08 01:34:00,
2013-08-07 19:39:00,56.5,51.4,29.76,NW,312,0.0,0.0,83,0.00,,,0.06,16,Wunderground v.1.15,2013-08-08 01:39:00,
2013-08-07 19:44:00,56.5,51.4,29.77,NW,312,0.0,0.0,83,0.00,,,0.06,11,Wunderground v.1.15,2013-08-08 01:44:00,
2013-08-07 19:49:00,56.3,51.2,29.77,NW,312,0.0,0.0,83,0.00,,,0.06,5,Wunderground v.1.15,2013-08-08 01:49:00,
2013-08-07 19:54:00,56.3,51.5,29.77,NW,312,0.0,0.0,84,0.00,,,0.06,5,Wunderground v.1.15,2013-08-08 01:54:00,
2013-08-07 20:00:00,56.2,51.7,29.77,NW,312,0.0,0.0,85,0.00,,,0.06,0,Wunderground v.1.15,2013-08-08 02:00:00,
2013-08-07 20:05:00,56.2,51.7,29.77,NW,312,0.0,0.0,85,0.00,,,0.06,0,Wunderground v.1.15,2013-08-08 02:05:00,
2013-08-07 20:10:00,56.0,51.6,29.77,NW,312,0.0,0.0,85,0.00,,,0.06,0,Wunderground v.1.15,2013-08-08 02:10:00,
2013-08-07 20:15:00,55.9,51.5,29.78,NW,312,0.0,0.0,85,0.00,,,0.06,0,Wunderground v.1.15,2013-08-08 02:15:00,
2013-08-07 20:20:00,55.7,51.3,29.78,NW,312,0.0,0.0,85,0.00,,,0.06,0,Wunderground v.1.15,2013-08-08 02:20:00,
2013-08-07 20:25:00,55.6,51.2,29.78,NW,312,0.0,0.0,85,0.00,,,0.06,0,Wunderground v.1.15,2013-08-08 02:25:00,
2013-08-07 20:30:00,55.4,51.0,29.78,NW,312,0.0,0.0,85,0.00,,,0.06,0,Wunderground v.1.15,2013-08-08 02:30:00,
2013-08-07 20:37:00,55.1,51.0,29.78,NW,312,0.0,0.0,86,0.00,,,0.06,0,Wunderground v.1.15,2013-08-08 02:37:00,
2013-08-07 20:45:00,54.8,50.7,29.79,NW,312,0.0,0.0,86,0.00,,,0.06,0,Wunderground v.1.15,2013-08-08 02:45:00,
2013-08-07 20:50:00,54.7,50.6,29.79,NW,312,0.0,0.0,86,0.00,,,0.06,0,Wunderground v.1.15,2013-08-08 02:50:00,
2013-08-07 20:55:00,54.5,50.1,29.79,NW,312,0.0,0.0,85,0.00,,,0.06,0,Wunderground v.1.15,2013-08-08 02:55:00,
2013-08-07 21:00:00,54.2,49.8,29.79,NW,312,0.0,0.0,85,0.00,,,0.06,0,Wunderground v.1.15,2013-08-08 03:00:00,
2013-08-07 21:06:00,54.1,50.0,29.79,NW,312,0.0,0.0,86,0.00,,,0.06,0,Wunderground v.1.15,2013-08-08 03:06:00,
2013-08-07 21:11:00,53.9,49.5,29.79,NW,312,0.0,0.0,85,0.00,,,0.06,0,Wunderground v.1.15,2013-08-08 03:11:00,
2013-08-07 21:16:00,53.8,49.7,29.80,NW,312,0.0,0.0,86,0.00,,,0.06,0,Wunderground v.1.15,2013-08-08 03:16:00,
2013-08-07 21:21:00,53.6,49.5,29.80,NW,312,0.0,0.0,86,0.00,,,0.06,0,Wunderground v.1.15,2013-08-08 03:21:00,
2013-08-07 21:26:00,53.5,49.4,29.80,NW,312,0.0,0.0,86,0.00,,,0.06,0,Wunderground v.1.15,2013-08-08 03:26:00,
2013-08-07 21:31:00,53.3,49.2,29.81,NW,312,0.0,0.0,86,0.00,,,0.06,0,Wunderground v.1.15,2013-08-08 03:31:00,
2013-08-07 21:36:00,53.2,49.1,29.81,NW,312,0.0,0.0,86,0.00,,,0.06,0,Wunderground v.1.15,2013-08-08 03:36:00,
2013-08-07 21:41:00,53.1,49.0,29.81,NW,312,0.0,0.0,86,0.00,,,0.06,0,Wunderground v.1.15,2013-08-08 03:41:00,
2013-08-07 21:46:00,52.9,48.8,29.81,NW,312,0.0,0.0,86,0.00,,,0.06,0,Wunderground v.1.15,2013-08-08 03:46:00,
2013-08-07 21:51:00,52.8,48.7,29.81,NW,312,0.0,0.0,86,0.00,,,0.06,0,Wunderground v.1.15,2013-08-08 03:51:00,
2013-08-07 21:56:00,52.5,48.4,29.81,NW,312,0.0,0.0,86,0.00,,,0.06,0,Wunderground v.1.15,2013-08-08 03:56:00,
2013-08-07 22:01:00,52.3,48.2,29.81,NW,312,0.0,0.0,86,0.00,,,0.06,0,Wunderground v.1.15,2013-08-08 04:01:00,
2013-08-07 22:04:00,52.2,48.1,29.81,NW,312,6.0,6.0,86,0.00,,,0.06,0,Wunderground v.1.15,2013-08-08 04:04:00,
2013-08-07 22:09:00,52.0,47.9,29.81,NW,312,4.0,6.0,86,0.00,,,0.06,0,Wunderground v.1.15,2013-08-08 04:09:00,
2013-08-07 22:14:00,51.9,47.8,29.81,NW,312,5.0,5.0,86,0.00,,,0.06,0,Wunderground v.1.15,2013-08-08 04:14:00,
2013-08-07 22:19:00,51.7,47.6,29.81,NW,312,4.0,6.0,86,0.00,,,0.06,0,Wunderground v.1.15,2013-08-08 04:19:00,
2013-08-07 22:24:00,51.4,47.4,29.81,NW,312,2.0,5.0,86,0.00,,,0.06,0,Wunderground v.1.15,2013-08-08 04:24:00,
2013-08-07 22:29:00,51.3,47.6,29.80,NW,312,2.0,5.0,87,0.00,,,0.06,0,Wunderground v.1.15,2013-08-08 04:29:00,
2013-08-07 22:34:00,51.1,47.4,29.80,NW,312,4.0,5.0,87,0.00,,,0.06,0,Wunderground v.1.15,2013-08-08 04:34:00,
2013-08-07 22:39:00,51.0,47.3,29.80,NW,312,6.0,7.0,87,0.00,,,0.06,0,Wunderground v.1.15,2013-08-08 04:39:00,
2013-08-07 22:44:00,51.0,47.3,29.80,NW,312,2.0,6.0,87,0.00,,,0.06,0,Wunderground v.1.15,2013-08-08 04:44:00,
2013-08-07 22:49:00,50.8,47.1,29.80,NW,312,5.0,6.0,87,0.00,,,0.06,0,Wunderground v.1.15,2013-08-08 04:49:00,
2013-08-07 22:54:00,50.7,47.0,29.80,NW,312,6.0,7.0,87,0.00,,,0.06,0,Wunderground v.1.15,2013-08-08 04:54:00,
2013-08-07 22:59:00,50.5,47.1,29.80,NW,312,5.0,7.0,88,0.00,,,0.06,0,Wunderground v.1.15,2013-08-08 04:59:00,
2013-08-07 23:04:00,50.4,47.0,29.80,NW,312,4.0,6.0,88,0.00,,,0.06,0,Wunderground v.1.15,2013-08-08 05:04:00,
2013-08-07 23:09:00,50.4,47.0,29.80,NW,312,6.0,6.0,88,0.00,,,0.06,0,Wunderground v.1.15,2013-08-08 05:09:00,
2013-08-07 23:14:00,50.4,47.3,29.80,NW,312,7.0,7.0,89,0.00,,,0.06,0,Wunderground v.1.15,2013-08-08 05:14:00,
2013-08-07 23:19:00,50.2,47.1,29.80,NW,312,5.0,7.0,89,0.00,,,0.06,0,Wunderground v.1.15,2013-08-08 05:19:00,
2013-08-07 23:24:00,50.2,47.1,29.80,NW,312,4.0,6.0,89,0.00,,,0.06,0,Wunderground v.1.15,2013-08-08 05:24:00,
2013-08-07 23:29:00,50.1,47.0,29.81,NW,312,3.0,6.0,89,0.00,,,0.06,0,Wunderground v.1.15,2013-08-08 05:29:00,
2013-08-07 23:34:00,49.9,46.8,29.81,NW,312,2.0,5.0,89,0.00,,,0.06,0,Wunderground v.1.15,2013-08-08 05:34:00,
2013-08-07 23:39:00,49.9,46.8,29.81,NW,312,0.0,5.0,89,0.00,,,0.06,0,Wunderground v.1.15,2013-08-08 05:39:00,
2013-08-07 23:44:00,49.8,46.7,29.81,NW,312,0.0,1.0,89,0.00,,,0.06,0,Wunderground v.1.15,2013-08-08 05:44:00,
2013-08-07 23:49:00,49.8,47.0,29.81,NW,312,0.0,1.0,90,0.00,,,0.06,0,Wunderground v.1.15,2013-08-08 05:49:00,
2013-08-07 23:54:00,49.8,47.0,29.81,NW,312,0.0,0.0,90,0.00,,,0.06,0,Wunderground v.1.15,2013-08-08 05:54:00,
2013-08-07 23:59:00,49.6,46.8,29.81,NW,312,0.0,0.0,90,0.00,,,0.06,0,Wunderground v.1.15,2013-08-08 05:59:00,